Location: ??????
(31.2511°N, 45.5379°E)
Time: 08:48:16
(UTC+00:00)

Daily predictions for brighter satellites

Satellite Brightness Start Highest point End
(mag) Time Altitude Azimuth Time Altitude Azimuth Time Altitude Azimuth
Meteor 2-3 Rocket 3.8 14:20:41 10° N 14:26:30 89° E 14:32:13 10° S
Feng Yun 1-1 Rocket 4.3 14:20:51 10° SSE 14:26:30 72° ENE 14:32:01 10° N
NOSS 2-3 (E) 3.9 14:24:19 10° S 14:28:20 44° ESE 14:32:38 10° NE
Cosmos 1437 4.4 14:25:57 10° NNW 14:28:49 37° W 14:31:40 10° SSW
USA 229 DEB 4.2 14:23:51 10° SW 14:30:13 58° WNW 14:36:51 10° NNE
USA 229 4.2 14:23:58 10° SW 14:30:19 58° WNW 14:36:57 10° NNE
NOSS 3-1 (A) 3.2 14:30:18 10° SSW 14:35:36 89° ESE 14:41:32 10° NNE
NOSS 3-1 (C) 4.0 14:30:54 10° SW 14:36:04 52° WNW 14:41:54 10° NNE
NOSS 2-3 (D) 3.7 14:33:40 10° SSW 14:37:46 52° ESE 14:42:10 10° NE
Cosmos 1500 Rocket 4.1 14:33:36 10° NNW 14:37:54 61° W 14:42:09 10° S
Cosmos 1656 3.9 14:35:32 10° SSW 14:41:06 76° WNW 14:46:38 10° NNE
Cosmos 1607 4.4 14:35:34 10° N 14:41:21 39° ENE 14:47:10 10° SE
Cosmos 1633 Rocket 4.2 14:39:32 10° NNE 14:42:56 22° ENE 14:46:20 10° SE
Cosmos 2084 3.6 14:42:10 10° NNW 14:46:17 47° ENE 14:50:18 10° SE
Envisat 3.2 14:42:15 10° SSE 14:47:06 48° ENE 14:51:59 10° N
APEX 4.2 14:45:04 10° SSE 14:48:38 27° ESE 14:50:38 16° ENE
Intelsat 5-3 Rocket 3.7 14:49:02 10° SW 14:50:34 14° S 14:51:54 10° SE
Cosmos 1328 Rocket 4.2 14:47:09 10° SSE 14:51:08 34° E 14:55:07 10° NNE
COSMO-SKYMED 1 2.5 14:48:07 10° NNE 14:52:26 66° E 14:56:44 10° S
Cosmos 1151 Rocket 3.7 14:50:28 10° SSE 14:54:20 33° E 14:58:15 10° NNE
Cosmos 1666 Rocket 4.0 14:50:22 10° NNE 14:54:23 36° E 14:58:21 10° SSE
Sich 1 3.1 14:51:32 10° N 14:55:49 55° E 15:00:07 10° SSE
SeaSat 1 2.6 14:52:12 10° SE 14:56:56 49° ENE 15:01:40 10° N
Cosmos 1633 3.0 14:53:42 10° NNE 14:57:08 38° E 15:00:31 10° SSE
SMAP 4.0 14:54:02 10° S 14:58:32 51° W 15:03:04 10° NNW
Cosmos 1356 Rocket 4.3 14:54:59 10° SSW 14:58:58 52° W 15:03:03 10° N
Cosmos 2219 3.3 15:00:01 10° NNW 15:05:39 77° WSW 15:11:14 10° SSE
GPS 2-04 Rocket1 2.7 15:02:59 10° SW 15:06:17 48° SSE 15:07:38 29° E
CSL-04 Rocket 4.1 15:01:50 10° SE 15:06:45 37° ENE 15:11:37 10° N
Lacrosse 4 Rocket 2.4 15:04:54 10° SW 15:08:50 44° WNW 15:12:43 10° N
CZ-4 R/B 4.5 15:06:19 10° SSE 15:10:20 53° ENE 15:14:22 10° N
YAOGAN 6 2.4 15:08:47 10° SSE 15:12:14 58° ENE 15:15:40 10° N
YAOGAN 1 3.0 15:08:38 10° SE 15:12:38 39° ENE 15:16:40 10° N
CZ-3C R/B 3.0 15:09:58 10° WSW 15:13:45 18° SSW 15:16:18 10° SSE
Cosmos 1980 Rocket 2.2 15:08:25 10° S 15:13:55 58° ESE 15:18:42 14° NNE
NOSS 2-3 (C) 4.2 15:11:34 10° SW 15:15:42 54° WNW 15:20:03 11° NNE
ATLAS 5 CENTAUR R/B 3.3 15:12:16 10° SW 15:16:08 30° SSE 15:23:11 16° ESE
Cosmos 1513 Rocket 4.4 15:09:53 10° N 15:16:18 76° E 15:22:35 10° S
Cosmos 2112 Rocket 3.9 15:11:44 10° SSW 15:16:54 82° ESE 15:22:07 10° NNE
CZ-4 R/B 1.3 15:15:43 10° SSE 15:19:52 66° ENE 15:23:58 10° N
Cosmos 2034 Rocket 4.0 15:14:08 10° N 15:20:22 57° E 15:26:37 10° SSE
Cosmos 1680 Rocket 3.7 15:19:02 10° SSW 15:24:12 70° WNW 15:29:25 10° N
FengYun 1-2 T 4.1 15:18:56 10° SSE 15:24:28 85° ENE 15:30:00 10° NNW
Cosmos 2227 Rocket 2.1 15:19:41 10° NNW 15:25:22 89° WSW 15:31:01 10° SSE
Cosmos 2297 Rocket 2.2 15:19:49 10° NNW 15:25:29 82° WSW 15:31:07 10° SSE
Okean-O 4.1 15:23:51 10° SSW 15:27:59 39° W 15:32:08 10° NNW
USA 116 4.4 15:23:29 10° N 15:28:17 77° WNW 15:33:29 10° SSW
BREEZE-M DEB (TANK) 3.7 15:26:44 10° SW 15:30:45 73° SE 15:40:36 19° NE
SL-8 R/B 3.8 15:27:15 10° SSW 15:31:58 57° SE 15:33:02 45° E
Cosmos 158 Rocket 3.9 15:26:43 10° S 15:32:02 71° ESE 15:35:20 23° NNE
Delta 7925 Rocket 4.4 15:26:32 10° WSW 15:32:27 58° S 15:36:21 28° ESE
Tsikada Rocket 3.9 15:28:01 10° S 15:34:18 75° E 15:40:41 10° N
Hubble Space Telescope 3.1 15:36:05 10° S 15:37:39 13° SSE 15:37:39 13° SSE
Cosmos 1816 Rocket 4.4 15:33:13 10° S 15:39:32 88° E 15:45:55 10° N
Delta 168 3.9 15:40:16 10° SW 15:43:27 32° S 15:43:33 32° SSE
BREEZE-M DEB (TANK) 4.4 15:45:17 10° W 15:49:00 19° NW 15:49:58 17° NNW
Cosmos 1933 3.4 15:46:08 10° S 15:49:48 72° S 15:49:48 72° S
Meteor 1-26 Rocket 4.4 15:46:18 10° S 15:52:04 54° E 15:52:08 54° E
Cosmos 2082 3.6 15:47:33 10° NNW 15:53:11 85° WSW 15:58:47 10° SSE
Cosmos 1697 Rocket 4.4 15:48:56 10° SW 15:53:52 30° WNW 15:58:48 10° N
Cosmos 2228 Rocket 3.8 15:51:32 10° S 15:54:24 40° S 15:54:24 40° S
ATLAS 5 CENTAUR R/B 3.1 15:58:17 10° NW 16:04:24 56° WSW 16:11:11 10° SSE
Centaur D-1AR AC-41 4.4 16:09:40 10° SW 16:11:55 22° SSW 16:11:55 22° SSW
SL-16 R/B 4.1 16:45:25 10° SSW 16:47:18 22° SSW 16:47:18 22° SSW
